Regional Weather Roundup
Issued by NWS

Home | Current Version | Previous Version | Graphics & Text | Print | Product List | Glossary On
Versions: 1 2 3 4 5 6 7 8 9 10 11 12 13 14 15 16 17 18 19 20 21 22 23 24 25 26 27 28 29 30 31 32 33 34 35 36 37 38 39 40 41 42 43 44 45 46 47 48 49 50
000
ASUS43 KTOP 231108
RWRKS

WEATHER ROUNDUP FOR KANSAS
NATIONAL WEATHER SERVICE GOODLAND KS
500 AM CST THU FEB 23 2017

NOTE:  "FAIR" INDICATES FEW OR NO CLOUDS BELOW 12,000 FEET WITH NO
SIGNIFICANT WEATHER AND/OR OBSTRUCTIONS TO VISIBILITY.

KSZ001>006-013>018-027>032-041>047-231200-
NORTHWEST KANSAS

CITY           SKY/WX    TMP DP  RH WIND       PRES   REMARKS
GOODLAND       CLEAR     32  27  81 NE8       29.62S
HAYS             N/A     46  35  65 E22       29.59F
HILL CITY      CLOUDY    43  36  76 NE16G24   29.67S
RUSSELL        CLOUDY    47  36  65 NE21      29.60F
$$

KSZ061>065-074>080-084>089-231200-
SOUTHWEST KANSAS

CITY           SKY/WX    TMP DP  RH WIND       PRES   REMARKS
DODGE CITY     MOCLDY    50  34  54 E14       29.57F
ELKHART          N/A     56  29  35 W16         N/A
GARDEN CITY    CLOUDY    50  35  56 CALM      29.53F
GREAT BEND     LGT RAIN  51  36  56 E24G30    29.63S
LIBERAL        PTCLDY    54  27  35 S8        29.58F
PRATT          CLOUDY    47  34  59 NE10      29.61S
$$

KSZ066>073-081>083-090>101-231200-
SOUTHEAST KANSAS

CITY           SKY/WX    TMP DP  RH WIND       PRES   REMARKS
CHANUTE        PTCLDY    48  44  86 CALM      29.63F
COFFEYVILLE    CLEAR     52  48  86 SE6       29.62F
HUTCHINSON     MOCLDY    51  39  63 N10       29.62R
MEDICINE LODGE   N/A     49  41  74 N7        29.57S
NEWTON         PTCLDY    52  40  63 NE13      29.61F
PARSONS        PTCLDY    44  42  93 E3        29.63S
WICHITA INTL   MOCLDY    48  43  82 NE9       29.58F
WICHITA JABRA  CLOUDY    47  43  86 NE6       29.59S
WICHITA MCCONL PTCLDY    48  42  78 E9        29.59S
WINFIELD       PTCLDY    50  40  68 SE8       29.57F
$$

KSZ007>012-019>026-033>040-048>060-102>105-231200-
NORTHEAST KANSAS

CITY           SKY/WX    TMP DP  RH WIND       PRES   REMARKS
CONCORDIA      MOCLDY    45  38  76 E13       29.70S
EMPORIA        CLOUDY    52  39  61 NE12      29.66R
LAWRENCE       CLOUDY    52  40  63 NE10      29.70R
MANHATTAN      CLOUDY    51  39  63 NE13      29.70R
MARYSVILLE     CLOUDY    43  37  81 NE10      29.72F
OLATHE IND     MOCLDY    53  39  59 NE12      29.69R
OLATHE EXE     CLOUDY    52  41  66 E9        29.69R
SALINA         CLOUDY    53  37  54 NE12      29.69R
TOPEKA BILLARD CLOUDY    52  39  61 NE7       29.72R
TOPEKA FORBES  MOCLDY    53  37  54 NE6       29.72R
$$




USA.gov is the U.S. government's official web portal to all federal, state and local government web resources and services.